Location: Newark
(45.9456°N, 15.4064°E)
Time: 19:50:03
(UTC+00:00)

Vanguard 3 - Pass Details

Date: 24 January 2020
Orbit: 508 x 3263 km, 33.3° (Epoch: 25 February)

Event Time Altitude Azimuth Distance (km) Brightness Sun altitude
Rises 14:55:11 0° 209° (SSW) 6,799 13.3 7.4°
Reaches altitude 10° 15:00:21 10° 200° (SSW) 6,006 12.7 6.7°
Maximum altitude 15:15:58 31° 147° (SSE) 4,593 11.0 4.5°
Drops below altitude 10° 15:30:19 10° 94° (E) 5,569 10.9 2.3°
Sets 15:34:48 0° 85° (E) 6,264 11.1 1.7°
